| time (UTC) | temp F | wind direction | speed MPH | gust MPH | rain 1hr in | rain 24hr in | rain mn in | humidity % | barometer mb |
| 20260505010057 | 50 | 270 | 0.0 | 0.0 | 0.00 | 0.00 | 0.00 | 72 | 1013.4 |
| 20260505005557 | 50 | 270 | 0.0 | 2.0 | 0.00 | 0.00 | 0.00 | 72 | 1013.4 |
| 20260505005058 | 50 | 225 | 0.0 | 0.0 | 0.00 | 0.00 | 0.00 | 71 | 1013.4 |
| 20260505004557 | 50 | 225 | 0.0 | 2.0 | 0.00 | 0.00 | 0.00 | 71 | 1013.4 |
| 20260505004057 | 50 | 315 | 0.0 | 0.0 | 0.00 | 0.00 | 0.00 | 71 | 1013.4 |
| 20260505003557 | 50 | 180 | 0.0 | 1.0 | 0.00 | 0.00 | 0.00 | 71 | 1013.4 |
| 20260505003057 | 50 | 180 | 0.0 | 1.0 | 0.00 | 0.00 | 0.00 | 71 | 1013.4 |
| 20260505002557 | 50 | 180 | 0.0 | 0.0 | 0.00 | 0.00 | 0.00 | 71 | 1013.6 |
| 20260505002057 | 51 | 180 | 0.0 | 0.0 | 0.00 | 0.00 | 0.00 | 71 | 1013.6 |
| 20260505001557 | 51 | 270 | 1.0 | 2.0 | 0.00 | 0.00 | 0.00 | 71 | 1013.5 |
| 20260505001057 | 51 | 180 | 0.0 | 0.0 | 0.00 | 0.00 | 0.00 | 71 | 1013.6 |
| 20260505000557 | 51 | 225 | 0.0 | 2.0 | 0.00 | 0.00 | 0.00 | 71 | 1013.7 |
| 20260505000057 | 51 | 225 | 0.0 | 2.0 | 0.00 | 0.00 | 0.00 | 71 | 1013.7 |
| 20260504235557 | 51 | 270 | 0.0 | 0.0 | 0.00 | 0.00 | 0.00 | 72 | 1013.7 |
| 20260504235057 | 51 | 180 | 0.0 | 2.0 | 0.00 | 0.00 | 0.00 | 72 | 1013.8 |
| 20260504234557 | 51 | 315 | 0.0 | 2.0 | 0.00 | 0.00 | 0.00 | 71 | 1014.0 |
| 20260504234057 | 51 | 360 | 0.0 | 0.0 | 0.00 | 0.00 | 0.00 | 71 | 1013.8 |
| 20260504233557 | 51 | 180 | 0.0 | 0.0 | 0.00 | 0.00 | 0.00 | 70 | 1013.9 |
| 20260504233056 | 51 | 180 | 0.0 | 0.0 | 0.00 | 0.00 | 0.00 | 70 | 1013.9 |
| 20260504232557 | 51 | 180 | 0.0 | 2.0 | 0.00 | 0.00 | 0.00 | 70 | 1014.0 |
| 20260504232057 | 51 | 315 | 0.0 | 0.0 | 0.00 | 0.00 | 0.00 | 70 | 1014.1 |
| 20260504231557 | 51 | 180 | 0.0 | 0.0 | 0.00 | 0.00 | 0.00 | 70 | 1014.0 |
| 20260504231057 | 51 | 360 | 0.0 | 2.0 | 0.00 | 0.00 | 0.00 | 70 | 1014.0 |
| 20260504230557 | 51 | 180 | 0.0 | 2.0 | 0.00 | 0.00 | 0.00 | 70 | 1014.0 |
| 20260504230057 | 51 | 270 | 0.0 | 0.0 | 0.00 | 0.00 | 0.00 | 70 | 1014.2 |
| 20260504225557 | 51 | 270 | 0.0 | 0.0 | 0.00 | 0.00 | 0.00 | 69 | 1014.2 |
| 20260504225057 | 52 | 158 | 0.0 | 0.0 | 0.00 | 0.00 | 0.00 | 68 | 1014.1 |
| 20260504224557 | 52 | 45 | 0.0 | 0.0 | 0.00 | 0.00 | 0.00 | 68 | 1014.3 |
| 20260504224056 | 53 | 180 | 0.0 | 0.0 | 0.00 | 0.00 | 0.00 | 67 | 1014.3 |
| 20260504223557 | 53 | 180 | 0.0 | 0.0 | 0.00 | 0.00 | 0.00 | 67 | 1014.3 |
| 20260504223057 | 53 | 180 | 1.0 | 2.0 | 0.00 | 0.00 | 0.00 | 67 | 1014.3 |
| 20260504222557 | 53 | 225 | 1.0 | 2.0 | 0.00 | 0.00 | 0.00 | 67 | 1014.4 |
| 20260504222057 | 53 | 360 | 1.0 | 2.0 | 0.00 | 0.00 | 0.00 | 66 | 1014.5 |
| 20260504221556 | 54 | 45 | 0.0 | 2.0 | 0.00 | 0.00 | 0.00 | 67 | 1014.4 |
| 20260504221058 | 53 | 180 | 1.0 | 2.0 | 0.00 | 0.00 | 0.00 | 68 | 1014.4 |
| 20260504220558 | 53 | 135 | 0.0 | 2.0 | 0.00 | 0.00 | 0.00 | 69 | 1014.5 |
| 20260504220057 | 53 | 45 | 1.0 | 2.0 | 0.00 | 0.00 | 0.00 | 67 | 1014.6 |
| 20260504215557 | 53 | 45 | 1.0 | 2.0 | 0.00 | 0.01 | 0.00 | 67 | 1014.6 |
| 20260504215056 | 53 | 180 | 0.0 | 1.0 | 0.00 | 0.01 | 0.00 | 66 | 1014.5 |
| 20260504214557 | 54 | 315 | 0.0 | 0.0 | 0.00 | 0.01 | 0.00 | 64 | 1014.5 |
| 20260504214056 | 54 | 180 | 0.0 | 0.0 | 0.00 | 0.01 | 0.00 | 63 | 1014.5 |
| 20260504213557 | 54 | 180 | 0.0 | 0.0 | 0.00 | 0.01 | 0.00 | 63 | 1014.5 |
| 20260504213057 | 55 | 180 | 0.0 | 0.0 | 0.00 | 0.01 | 0.00 | 61 | 1014.6 |
| 20260504212557 | 55 | 180 | 0.0 | 2.0 | 0.00 | 0.01 | 0.00 | 61 | 1014.7 |
| 20260504212057 | 55 | 225 | 0.0 | 2.0 | 0.00 | 0.01 | 0.00 | 60 | 1014.7 |
| 20260504211557 | 55 | 225 | 0.0 | 2.0 | 0.00 | 0.01 | 0.00 | 60 | 1014.7 |
| 20260504211057 | 55 | 315 | 0.0 | 0.0 | 0.00 | 0.01 | 0.00 | 60 | 1014.7 |
| 20260504210557 | 55 | 225 | 0.0 | 2.0 | 0.00 | 0.01 | 0.00 | 60 | 1014.8 |
| 20260504210057 | 56 | 315 | 0.0 | 0.0 | 0.00 | 0.00 | 0.00 | 57 | 1014.5 |
| 20260504205450 | 56 | 180 | 0.0 | 0.0 | 0.00 | 0.01 | 0.00 | 55 | 1014.7 |
| 20260504204950 | 57 | 180 | 0.0 | 1.0 | 0.00 | 0.01 | 0.00 | 56 | 1014.5 |
| 20260504204451 | 57 | 360 | 0.0 | 2.0 | 0.00 | 0.01 | 0.00 | 55 | 1014.6 |
| 20260504203950 | 58 | 180 | 0.0 | 0.0 | 0.00 | 0.01 | 0.00 | 53 | 1014.5 |
| 20260504203451 | 58 | 225 | 0.0 | 0.0 | 0.00 | 0.01 | 0.00 | 53 | 1014.5 |
| 20260504202950 | 59 | 225 | 0.0 | 0.0 | 0.00 | 0.01 | 0.00 | 53 | 1014.6 |
| 20260504202451 | 59 | 135 | 0.0 | 0.0 | 0.00 | 0.01 | 0.00 | 51 | 1014.5 |
| 20260504201950 | 59 | 270 | 0.0 | 1.0 | 0.00 | 0.01 | 0.00 | 51 | 1014.5 |
| 20260504201450 | 60 | 315 | 0.0 | 0.0 | 0.00 | 0.01 | 0.00 | 51 | 1014.5 |
| 20260504200950 | 60 | 360 | 1.0 | 2.0 | 0.00 | 0.01 | 0.00 | 50 | 1014.6 |
| 20260504200450 | 61 | 270 | 0.0 | 0.0 | 0.00 | 0.01 | 0.00 | 49 | 1014.6 |
| 20260504195950 | 62 | 225 | 0.0 | 0.0 | 0.00 | 0.01 | 0.00 | 48 | 1014.6 |
| 20260504195450 | 63 | 225 | 0.0 | 2.0 | 0.00 | 0.01 | 0.00 | 47 | 1014.5 |
| 20260504194950 | 63 | 270 | 0.0 | 2.0 | 0.00 | 0.01 | 0.00 | 47 | 1014.3 |
| 20260504194451 | 64 | 225 | 1.0 | 2.0 | 0.00 | 0.01 | 0.00 | 42 | 1014.4 |
| 20260504193950 | 65 | 225 | 0.0 | 2.0 | 0.00 | 0.01 | 0.00 | 41 | 1014.4 |
| 20260504193450 | 65 | 225 | 0.0 | 1.0 | 0.00 | 0.01 | 0.00 | 41 | 1014.4 |
| 20260504192951 | 66 | 270 | 1.0 | 2.0 | 0.00 | 0.01 | 0.00 | 40 | 1014.4 |
| 20260504192450 | 67 | 225 | 1.0 | 2.0 | 0.00 | 0.01 | 0.00 | 40 | 1014.4 |
| 20260504191950 | 67 | 180 | 1.0 | 3.0 | 0.00 | 0.01 | 0.00 | 39 | 1014.3 |
| 20260504191450 | 68 | 270 | 1.0 | 4.0 | 0.00 | 0.01 | 0.00 | 39 | 1014.2 |
| 20260504190950 | 67 | 225 | 2.0 | 5.0 | 0.00 | 0.01 | 0.00 | 39 | 1014.2 |
| 20260504190450 | 68 | 225 | 1.0 | 3.0 | 0.00 | 0.01 | 0.00 | 39 | 1014.1 |
| 20260504185951 | 68 | 180 | 2.0 | 6.0 | 0.00 | 0.01 | 0.00 | 38 | 1014.1 |
| 20260504185450 | 68 | 180 | 0.0 | 1.0 | 0.00 | 0.01 | 0.00 | 38 | 1013.9 |
| 20260504184950 | 69 | 180 | 1.0 | 4.0 | 0.00 | 0.01 | 0.00 | 37 | 1013.9 |
| 20260504184450 | 69 | 135 | 1.0 | 2.0 | 0.00 | 0.01 | 0.00 | 37 | 1014.0 |
| 20260504183950 | 69 | 180 | 1.0 | 3.0 | 0.00 | 0.01 | 0.00 | 36 | 1013.8 |
| 20260504183451 | 69 | 225 | 2.0 | 4.0 | 0.00 | 0.01 | 0.00 | 35 | 1013.8 |
| 20260504182950 | 70 | 180 | 2.0 | 6.0 | 0.00 | 0.01 | 0.00 | 36 | 1013.9 |
| 20260504182450 | 70 | 135 | 0.0 | 2.0 | 0.00 | 0.01 | 0.00 | 35 | 1013.8 |
| 20260504181950 | 71 | 225 | 2.0 | 4.0 | 0.00 | 0.01 | 0.00 | 34 | 1013.7 |
| 20260504181450 | 72 | 225 | 2.0 | 4.0 | 0.00 | 0.01 | 0.00 | 33 | 1013.7 |
| 20260504180950 | 72 | 225 | 2.0 | 4.0 | 0.00 | 0.01 | 0.00 | 33 | 1013.7 |
| 20260504180450 | 72 | 225 | 2.0 | 4.0 | 0.00 | 0.01 | 0.00 | 33 | 1013.7 |
| 20260504175950 | 72 | 180 | 1.0 | 5.0 | 0.00 | 0.01 | 0.00 | 33 | 1013.7 |
| 20260504175450 | 73 | 135 | 1.0 | 4.0 | 0.00 | 0.01 | 0.00 | 31 | 1013.7 |
| 20260504174950 | 73 | 225 | 2.0 | 5.0 | 0.00 | 0.01 | 0.00 | 31 | 1013.6 |
| 20260504174450 | 73 | 225 | 2.0 | 6.0 | 0.00 | 0.01 | 0.00 | 31 | 1013.5 |
| 20260504173950 | 73 | 180 | 3.0 | 8.0 | 0.00 | 0.01 | 0.00 | 31 | 1013.5 |
| 20260504173450 | 73 | 180 | 2.0 | 5.0 | 0.00 | 0.01 | 0.00 | 31 | 1013.6 |
| 20260504172950 | 73 | 90 | 2.0 | 7.0 | 0.00 | 0.01 | 0.00 | 31 | 1013.6 |
| 20260504172450 | 74 | 135 | 3.0 | 8.0 | 0.00 | 0.01 | 0.00 | 31 | 1013.5 |
| 20260504171950 | 74 | 225 | 3.0 | 8.0 | 0.00 | 0.01 | 0.00 | 30 | 1013.5 |
| 20260504171450 | 74 | 135 | 2.0 | 6.0 | 0.00 | 0.01 | 0.00 | 30 | 1013.5 |
| 20260504170950 | 74 | 180 | 3.0 | 8.0 | 0.00 | 0.01 | 0.00 | 30 | 1013.3 |
| 20260504170450 | 75 | 158 | 2.0 | 7.0 | 0.00 | 0.01 | 0.00 | 30 | 1013.5 |
| 20260504150950 | 82 | 180 | 1.0 | 4.0 | 0.00 | 0.01 | 0.00 | 21 | 1014.1 |
| 20260504150449 | 82 | 90 | 1.0 | 3.0 | 0.00 | 0.01 | 0.00 | 21 | 1014.1 |
| 20260504140949 | 83 | 158 | 2.0 | 7.0 | 0.00 | 0.01 | 0.00 | 22 | 1014.8 |
| 20260504140450 | 82 | 135 | 3.0 | 8.0 | 0.00 | 0.01 | 0.00 | 21 | 1015.0 |
| 20260504130449 | 82 | 135 | 2.0 | 4.0 | 0.00 | 0.01 | 0.00 | 21 | 1015.7 |
| 20260504110449 | 76 | 135 | 3.0 | 8.0 | 0.00 | 0.01 | 0.00 | 32 | 1017.1 |
| 20260504100449 | 75 | 270 | 2.0 | 4.0 | 0.00 | 0.01 | 0.00 | 31 | 1017.8 |
| 20260504081722 | 70 | 135 | 1.0 | 4.0 | 0.00 | 0.01 | 0.00 | 43 | 1018.4 |
| 20260504081223 | 70 | 135 | 1.0 | 4.0 | 0.01 | 0.01 | 0.00 | 42 | 1018.5 |
| 20260504080722 | 69 | 135 | 1.0 | 2.0 | 0.01 | 0.01 | 0.00 | 42 | 1018.4 |
| 20260504080222 | 70 | 45 | 1.0 | 4.0 | 0.00 | 0.00 | 0.00 | 42 | 1018.4 |
| 20260504070222 | 66 | 180 | 1.0 | 4.0 | 0.00 | 0.00 | 0.00 | 47 | 1018.3 |
| 20260504060222 | 63 | 360 | 0.0 | 0.0 | 0.00 | 0.00 | 0.00 | 63 | 1018.1 |
| 20260504050722 | 58 | 315 | 0.0 | 0.0 | 0.00 | 0.00 | 0.00 | 70 | 1018.1 |
| 20260504050221 | 57 | 315 | 0.0 | 0.0 | 0.00 | 0.00 | 0.00 | 71 | 1018.0 |
| 20260504045722 | 56 | 315 | 0.0 | 0.0 | 0.00 | 0.00 | 0.00 | 73 | 1017.9 |
| 20260504045221 | 54 | 270 | 0.0 | 0.0 | 0.00 | 0.00 | 0.00 | 78 | 1018.0 |
| 20260504044721 | 52 | 270 | 0.0 | 0.0 | 0.00 | 0.00 | 0.00 | 79 | 1018.0 |
| 20260504044222 | 51 | 270 | 0.0 | 0.0 | 0.00 | 0.00 | 0.00 | 80 | 1018.0 |
| 20260504043721 | 50 | 270 | 0.0 | 0.0 | 0.00 | 0.00 | 0.00 | 80 | 1017.9 |
| 20260504043222 | 50 | 270 | 0.0 | 0.0 | 0.00 | 0.00 | 0.00 | 81 | 1017.9 |
| 20260504042721 | 49 | 270 | 0.0 | 0.0 | 0.00 | 0.00 | 0.00 | 81 | 1018.0 |
| 20260504042222 | 49 | 225 | 0.0 | 0.0 | 0.00 | 0.00 | 0.00 | 82 | 1017.9 |
| 20260504041722 | 48 | 225 | 0.0 | 0.0 | 0.00 | 0.00 | 0.00 | 83 | 1018.0 |
| 20260504041222 | 48 | 270 | 0.0 | 0.0 | 0.00 | 0.00 | 0.00 | 83 | 1017.9 |
| 20260504040722 | 47 | 270 | 0.0 | 0.0 | 0.00 | 0.00 | 0.00 | 83 | 1017.8 |
| 20260504040221 | 46 | 225 | 0.0 | 0.0 | 0.00 | 0.00 | 0.00 | 82 | 1017.8 |
| 20260504035721 | 46 | 225 | 0.0 | 0.0 | 0.00 | 0.00 | 0.00 | 82 | 1017.8 |
| 20260504035222 | 46 | 270 | 0.0 | 0.0 | 0.00 | 0.00 | 0.00 | 82 | 1017.9 |
| 20260504034722 | 46 | 225 | 0.0 | 0.0 | 0.00 | 0.00 | 0.00 | 81 | 1018.0 |
| 20260504034221 | 45 | 225 | 0.0 | 0.0 | 0.00 | 0.00 | 0.00 | 86 | 1017.9 |
| 20260504033721 | 46 | 225 | 0.0 | 0.0 | 0.00 | 0.00 | 0.00 | 81 | 1017.8 |
| 20260504033221 | 45 | 180 | 0.0 | 0.0 | 0.00 | 0.00 | 0.00 | 86 | 1017.9 |
| 20260504032721 | 45 | 225 | 0.0 | 0.0 | 0.00 | 0.00 | 0.00 | 86 | 1018.0 |
| 20260504032222 | 45 | 270 | 0.0 | 0.0 | 0.00 | 0.00 | 0.00 | 86 | 1017.9 |
| 20260504031721 | 46 | 270 | 0.0 | 0.0 | 0.00 | 0.00 | 0.00 | 81 | 1017.9 |
| 20260504031221 | 46 | 270 | 0.0 | 0.0 | 0.00 | 0.00 | 0.00 | 80 | 1017.9 |
| 20260504030721 | 46 | 180 | 0.0 | 0.0 | 0.00 | 0.00 | 0.00 | 80 | 1017.9 |
| 20260504030221 | 46 | 180 | 0.0 | 0.0 | 0.00 | 0.00 | 0.00 | 80 | 1018.1 |
| 20260504025721 | 46 | 225 | 0.0 | 0.0 | 0.00 | 0.00 | 0.00 | 80 | 1018.0 |
| 20260504025221 | 47 | 270 | 0.0 | 2.0 | 0.00 | 0.00 | 0.00 | 80 | 1018.0 |
| 20260504024721 | 46 | 225 | 0.0 | 0.0 | 0.00 | 0.00 | 0.00 | 80 | 1018.1 |
| 20260504024221 | 46 | 180 | 0.0 | 0.0 | 0.00 | 0.00 | 0.00 | 80 | 1018.0 |
| 20260504023721 | 46 | 360 | 0.0 | 0.0 | 0.00 | 0.00 | 0.00 | 80 | 1018.0 |
| 20260504023221 | 47 | 360 | 0.0 | 2.0 | 0.00 | 0.00 | 0.00 | 80 | 1018.1 |
| 20260504022721 | 46 | 225 | 0.0 | 0.0 | 0.00 | 0.00 | 0.00 | 79 | 1018.0 |
| 20260504022221 | 46 | 225 | 0.0 | 0.0 | 0.00 | 0.00 | 0.00 | 78 | 1018.0 |
| 20260504021722 | 46 | 225 | 0.0 | 0.0 | 0.00 | 0.00 | 0.00 | 78 | 1018.0 |
| 20260504021221 | 47 | 225 | 0.0 | 1.0 | 0.00 | 0.00 | 0.00 | 77 | 1018.0 |
| 20260504020721 | 47 | 225 | 0.0 | 0.0 | 0.00 | 0.00 | 0.00 | 77 | 1017.9 |
| 20260504020221 | 47 | 180 | 0.0 | 0.0 | 0.00 | 0.00 | 0.00 | 78 | 1018.0 |
| 20260504015721 | 47 | 180 | 0.0 | 0.0 | 0.00 | 0.00 | 0.00 | 78 | 1017.9 |
| 20260504015221 | 47 | 180 | 0.0 | 0.0 | 0.00 | 0.00 | 0.00 | 77 | 1017.9 |
| 20260504014721 | 48 | 180 | 0.0 | 0.0 | 0.00 | 0.00 | 0.00 | 77 | 1017.9 |
| 20260504014221 | 47 | 180 | 0.0 | 2.0 | 0.00 | 0.00 | 0.00 | 77 | 1017.9 |
| 20260504013721 | 48 | 180 | 0.0 | 0.0 | 0.00 | 0.00 | 0.00 | 77 | 1017.9 |
| 20260504013222 | 48 | 180 | 0.0 | 1.0 | 0.00 | 0.00 | 0.00 | 77 | 1017.9 |
| 20260504012721 | 48 | 180 | 0.0 | 2.0 | 0.00 | 0.00 | 0.00 | 77 | 1018.0 |
| 20260504012221 | 48 | 315 | 0.0 | 2.0 | 0.00 | 0.00 | 0.00 | 76 | 1017.9 |
| 20260504011722 | 48 | 158 | 0.0 | 0.0 | 0.00 | 0.00 | 0.00 | 76 | 1017.9 |
| 20260504011221 | 48 | 225 | 0.0 | 0.0 | 0.00 | 0.00 | 0.00 | 75 | 1017.9 |
| 20260504010721 | 48 | 270 | 0.0 | 0.0 | 0.00 | 0.00 | 0.00 | 75 | 1017.9 |